Location: ???? ???? ?????
(31.2680°N, 31.7283°E)
Time: 19:20:51
(UTC+00:00)

ATLAS CENTAUR R/B - Pass Details

Date: 13 July 2020
Orbit: 219 x 6219 km, 57.3° (Epoch: 05 August)

Event Time Altitude Azimuth Distance (km) Brightness Sun altitude
Rises 17:23:22 0° 310° (NW) 1,865 6.8 -5.4°
Reaches altitude 10° 17:24:49 10° 299° (WNW) 1,216 5.5 -5.7°
Maximum altitude 17:27:06 37° 228° (SW) 703 2.6 -6.1°
Drops below altitude 10° 17:31:28 10° 161° (SSE) 2,347 4.6 -6.9°
Enters shadow 17:34:46 - 156° (SSE) 3,824 5.6 -7.5°
